Location: Grand Lay
(47.3253°N, 0.9468°E)
Time: 17:56:43
(UTC+00:00)

COSMO-SKYMED 1 - Pass Details

Date: 18 January 2026
Orbit: 577 x 579 km, 97.9° (Epoch: 18 February)

Event Time Altitude Azimuth Distance (km) Brightness Sun altitude
Rises 05:56:47 0° 185° (S) 2,787 6.0 -16.6°
Reaches altitude 10° 05:59:03 10° 194° (SSW) 1,892 5.0 -16.2°
Maximum altitude 06:02:52 37° 263° (W) 917 2.9 -15.6°
Enters shadow 06:04:52 23° 314° (NW) 1,265 3.7 -15.2°
